Theta_e
312 310 310 309 309 308 308 307 307 307 306 307 308 308 309 309 309 308 308 307 307 307 307 307 306 306 306 306 306 306 306 306 307 306 306 306 306 306 306 306 305 305 305
311 310 310 309 308 308 308 308 308 307 306 304 306 307 308 309 308 308 307 307 307 307 307 306 306 306 306 305 304 305 305 305 305 306 305 306 306 305 306 306 305 305 305
311 310 310 309 309 309 309 309 309 308 308 305 306 307 307 307 307 307 307 307 307 306 306 306 306 305 305 304 304 303 304 303 303 305 305 305 305 306 305 305 304 304 304
311 310 310 310 309 309 309 309 309 309 309 306 305 306 305 303 302 303 305 306 306 306 306 305 305 304 304 303 301 301 302 302 303 303 303 303 304 305 305 305 305 304 303
311 310 310 310 309 309 309 309 309 310 309 307 304 305 305 302 300 300 305 307 306 304 304 304 303 303 302 300 299 299 300 302 302 302 303 303 303 304 305 305 304 303 302
311 310 310 309 309 309 309 309 309 310 309 307 305 306 306 302 299 300 302 307 304 304 304 303 302 301 301 299 298 298 300 302 302 303 304 304 304 304 304 303 303 303 303
311 310 309 309 309 307 308 308 309 309 310 308 306 306 307 303 300 300 300 303 305 303 303 303 302 301 300 298 298 299 301 301 302 303 303 302 302 302 301 300 301 302 302
310 310 309 308 306 306 307 307 309 309 309 307 306 307 306 305 301 300 300 304 304 303 303 303 302 301 299 297 299 300 301 301 300 300 299 299 300 299 300 300 301 301 301
310 309 306 306 305 305 306 307 307 307 307 306 305 306 306 306 304 301 300 303 303 303 303 303 302 301 298 298 299 300 301 300 299 299 299 299 300 300 299 299 299 299 299
310 306 306 305 305 306 307 307 308 307 307 306 306 306 306 306 305 303 301 301 302 302 302 302 300 300 299 299 299 300 301 300 299 300 300 300 301 300 299 299 299 299 298
307 306 307 307 307 306 308 308 308 307 308 308 307 307 308 307 306 303 301 302 302 302 302 303 302 301 300 300 300 300 300 299 299 300 300 300 300 299 298 298 298 298 297
306 307 308 308 308 307 308 309 309 309 309 309 309 308 307 307 306 305 303 302 302 303 303 303 302 300 301 301 300 301 300 299 300 300 299 298 297 296 295 296 296 297 297
307 308 309 309 309 309 309 309 309 309 310 308 308 307 307 307 306 304 303 303 302 302 303 302 301 302 302 302 301 300 300 301 300 298 297 296 295 294 294 295 296 297 297
308 309 309 308 309 308 308 308 308 308 308 307 307 306 306 306 306 305 304 304 303 303 303 302 302 303 302 301 300 300 300 300 298 297 295 294 293 294 294 295 296 297 297
309 309 309 308 308 308 309 308 308 307 306 305 304 304 304 305 304 303 303 302 301 301 301 302 304 303 302 301 300 300 300 299 295 294 294 293 293 294 294 295 295 296 297
309 309 308 308 308 308 309 309 308 306 305 303 303 303 305 304 304 302 301 300 299 301 302 304 304 302 302 301 300 300 300 297 295 294 293 293 293 293 294 294 296 297 298
309 310 309 307 308 309 309 309 308 308 306 306 305 304 304 304 304 302 300 300 302 304 304 303 302 302 301 300 301 300 299 297 294 293 293 293 293 294 294 295 296 297 298
309 308 307 308 309 309 309 308 308 308 308 308 307 305 304 304 303 302 301 303 305 303 302 302 301 301 300 300 300 299 299 296 294 293 293 293 294 295 295 296 297 298 298
309 308 309 309 309 308 307 308 308 308 308 308 307 306 305 302 302 302 303 304 304 302 302 301 300 300 299 300 299 299 298 296 295 294 293 293 294 295 296 296 297 296 296
309 307 306 307 308 309 309 308 308 308 308 307 307 306 304 302 304 304 304 303 302 301 301 299 299 299 299 299 299 299 296 295 294 293 293 293 293 295 297 297 297 297 297
308 309 307 307 309 309 308 308 309 308 307 306 306 304 302 303 304 303 303 301 300 300 299 299 299 299 299 299 299 297 295 294 293 292 292 294 295 295 297 297 298 299 300
309 310 310 310 309 309 308 308 309 307 304 304 304 303 302 303 304 303 302 300 299 299 299 298 298 298 298 299 298 295 294 294 294 294 295 296 296 298 299 299 300 302 302
309 309 309 309 309 308 309 308 306 303 302 302 303 302 302 301 302 302 300 299 299 298 299 298 298 298 299 298 296 294 294 295 296 296 297 298 299 299 301 303 303 304 304
308 308 308 309 308 308 308 305 302 301 301 301 301 301 301 300 301 300 299 298 299 298 298 298 298 298 298 297 296 296 296 297 299 300 300 300 301 302 304 305 305 304 304
307 307 309 309 308 307 304 302 301 301 300 300 300 299 299 299 299 299 298 298 298 298 298 298 298 299 297 297 297 298 299 300 301 301 302 302 304 305 304 303 303 303 303
307 308 308 307 305 302 301 301 300 299 299 299 298 298 298 298 298 298 298 298 298 298 298 298 298 298 297 298 299 300 300 301 302 303 304 304 304 304 303 303 303 303 302
Wind_Speed
7 6 6 4 3 7 8 9 9 9 10 10 10 11 11 10 11 10 10 11 11 11 12 13 14 13 16 18 17 17 17 20 14 21 25 22 17 15 13 13 17 18 17
6 5 5 3 6 6 7 7 8 9 11 11 10 9 9 9 8 10 11 11 13 13 14 15 15 16 19 21 21 21 20 18 16 20 19 23 18 24 12 13 15 19 12
6 6 2 4 4 4 4 4 6 7 9 11 9 9 10 11 13 15 13 13 13 13 14 15 18 18 17 19 20 21 22 22 24 22 22 24 19 12 18 20 15 20 17
6 5 3 2 3 4 5 5 5 6 8 9 9 8 8 11 12 12 12 12 13 14 16 18 16 16 16 17 21 23 24 24 24 23 23 22 19 17 13 19 18 20 21
7 5 2 0 1 3 5 5 5 5 6 7 8 7 7 10 13 15 11 11 13 16 16 17 20 10 15 21 22 24 23 23 23 23 22 23 21 20 17 16 16 20 22
7 6 2 2 1 3 3 5 5 5 4 6 6 6 7 10 13 15 15 13 13 13 14 16 17 19 21 24 25 26 26 21 22 22 19 23 22 22 20 20 21 18 12
8 6 4 2 3 3 4 5 4 4 4 4 4 5 6 8 13 14 16 14 12 13 12 13 17 19 18 25 26 25 24 23 19 16 19 22 24 23 24 24 24 23 20
8 5 2 2 3 2 3 3 3 3 3 3 3 4 6 6 11 14 19 13 11 14 11 10 13 15 18 26 24 24 22 26 26 23 23 24 23 23 21 22 23 22 21
9 5 2 2 1 1 2 2 2 2 2 2 2 3 5 6 10 15 16 19 15 17 16 10 8 10 23 24 21 23 25 28 26 22 22 23 13 15 18 16 16 15 14
8 6 5 4 3 3 2 2 2 3 3 5 4 4 5 6 7 12 12 15 17 18 20 7 2 16 25 25 23 23 27 30 27 26 27 18 15 15 18 15 12 13 14
8 7 6 5 3 1 2 3 4 5 5 5 6 9 10 9 8 9 8 8 13 16 19 18 18 24 25 21 27 23 22 25 24 22 26 22 21 16 19 17 17 15 17
9 8 7 5 5 2 3 6 7 7 11 13 13 14 6 7 12 10 8 9 11 11 19 19 22 26 24 28 21 26 23 19 20 26 24 22 20 20 18 18 21 18 17
10 8 6 5 5 5 6 7 11 12 14 13 13 13 12 12 15 5 8 9 13 16 15 19 26 17 21 22 23 30 21 19 24 23 20 20 19 20 20 18 18 14 17
10 8 6 5 6 6 9 11 10 11 12 12 13 15 18 18 16 9 16 15 19 19 19 28 24 24 19 20 23 26 22 20 23 18 18 18 18 20 19 17 15 14 14
9 7 6 8 7 8 11 8 9 9 9 12 14 15 17 18 19 21 18 15 15 15 20 21 17 16 15 21 24 24 17 23 24 20 20 21 21 19 17 15 15 14 11
7 8 8 6 6 8 7 9 9 11 7 10 15 16 13 13 16 19 19 16 14 16 20 17 25 19 17 22 23 22 17 25 23 22 22 19 18 18 17 17 13 11 13
8 5 4 4 9 7 8 10 12 8 15 17 20 20 15 9 14 15 12 11 11 10 14 16 21 21 19 22 21 20 17 25 25 21 21 19 17 19 17 16 15 13 13
7 4 7 9 8 9 9 11 12 12 13 16 12 4 2 8 12 7 7 12 15 12 10 16 19 20 18 22 23 21 16 28 24 23 21 20 20 17 17 14 14 14 14
7 8 8 8 9 8 12 13 12 12 14 16 15 9 9 22 17 3 9 10 12 19 17 19 20 18 21 23 24 21 19 28 24 22 21 21 20 17 15 15 13 14 14
7 7 6 8 11 11 9 10 12 14 15 15 15 14 18 17 14 5 7 14 20 19 19 21 20 20 24 24 24 21 29 27 24 21 21 21 18 16 16 16 16 13 12
7 8 7 8 12 9 9 12 13 14 16 16 13 10 15 14 13 17 17 18 17 18 18 18 20 22 24 24 24 22 31 27 23 22 21 20 19 18 17 17 15 11 8
9 6 8 13 7 6 10 11 13 14 15 14 13 10 13 14 16 16 16 16 16 17 18 20 21 23 23 24 23 30 28 25 24 22 21 22 20 16 15 13 11 10 10
7 6 8 7 4 5 5 12 13 12 12 11 12 13 14 15 14 13 12 12 15 16 18 18 20 23 24 25 33 26 22 22 21 20 19 19 18 17 15 12 12 12 12
8 4 5 5 6 9 11 11 10 7 9 11 11 12 12 12 12 14 14 14 15 15 18 18 20 23 24 33 31 24 19 18 18 17 14 15 15 16 18 14 12 14 15
6 1 2 4 8 10 9 8 8 9 10 10 10 11 11 11 13 14 11 17 16 15 17 18 23 22 31 32 28 22 17 15 16 18 18 17 17 13 18 18 15 14 15
4 2 5 8 7 7 7 7 9 9 9 10 10 10 10 11 11 10 11 15 15 16 17 19 22 21 34 33 27 23 19 18 20 19 17 13 15 21 19 15 15 12 12
Wind_Direction
68 74 81 55 28 36 33 30 27 24 20 17 16 16 18 21 24 19 12 21 13 5 8 1 2 357 355 350 344 352 348 340 342 327 326 331 351 309 317 314 311 304 314
86 96 83 73 57 52 38 34 26 22 21 17 17 16 14 15 12 14 4 0 1 1 3 356 354 357 1 1 343 350 333 330 314 309 315 312 328 311 296 297 322 314 317
117 121 118 80 60 37 21 15 13 10 19 17 15 18 18 17 10 4 0 358 360 3 360 349 8 11 7 350 340 338 330 332 319 311 309 294 295 304 320 302 314 312 315
137 129 125 72 32 6 350 343 348 354 15 12 10 15 17 24 16 5 359 356 0 358 4 359 4 6 359 350 340 331 329 320 310 309 310 311 306 316 311 324 333 311 318
150 156 139 78 37 9 357 345 332 335 5 6 11 26 22 39 17 12 356 355 4 8 1 1 2 34 9 359 345 333 322 321 317 315 316 314 326 343 327 328 316 306 314
160 167 158 244 296 346 342 345 337 338 0 2 15 25 24 32 14 14 359 339 13 7 2 359 353 4 352 348 341 334 327 317 317 317 313 320 322 323 326 318 311 314 310
173 169 187 259 289 301 308 332 345 338 355 355 0 10 20 26 8 5 348 327 350 356 359 353 353 355 357 348 340 336 334 329 328 316 308 321 321 326 324 318 314 316 319
191 164 205 264 280 266 311 338 337 348 344 350 353 3 4 27 2 360 354 346 350 348 338 344 351 350 355 348 344 339 338 339 333 328 323 311 308 318 314 310 308 303 306
187 166 174 165 163 100 64 31 359 351 339 329 341 347 358 347 345 348 351 333 4 341 342 335 351 357 352 345 338 340 336 341 334 328 319 308 304 321 322 314 308 313 313
170 160 155 146 139 118 85 52 10 321 38 339 340 322 305 320 328 331 341 341 345 342 331 2 58 359 345 340 325 323 323 336 332 326 323 324 325 338 332 318 302 314 315
159 165 165 166 175 191 255 287 309 314 333 311 300 286 260 259 271 283 305 328 334 332 325 324 338 339 326 325 339 320 315 329 325 331 335 333 331 324 327 323 328 313 305
179 178 181 197 246 214 274 290 288 282 272 265 255 270 288 257 261 251 276 284 298 310 316 322 332 326 328 316 315 321 332 325 348 339 336 334 333 326 322 317 322 309 298
185 194 207 221 248 257 273 283 282 253 256 290 308 313 316 320 319 214 271 277 290 285 312 314 322 328 321 331 349 339 346 354 350 342 336 332 328 322 325 325 320 313 313
191 203 218 230 247 271 290 285 295 310 318 314 328 332 334 332 343 355 324 314 318 325 326 325 332 327 338 349 353 340 350 4 355 343 331 325 324 329 328 325 321 323 318
198 210 225 231 217 268 255 284 299 311 305 308 309 319 317 322 330 321 318 304 305 316 319 315 324 323 338 350 340 340 353 2 359 342 330 329 330 330 327 329 325 320 304
197 212 233 274 267 262 287 298 250 243 253 256 260 264 283 298 315 314 310 306 318 322 323 331 325 357 356 350 335 338 2 4 348 339 336 332 328 330 328 330 323 315 315
239 300 258 247 263 284 305 301 318 296 249 258 255 252 261 305 334 333 338 332 335 342 305 339 351 359 348 333 338 344 7 353 343 337 334 330 325 331 329 326 331 336 331
226 264 271 279 292 289 311 319 305 308 320 328 344 232 0 334 322 334 349 333 340 327 343 358 356 349 341 339 336 357 358 346 339 334 330 331 331 328 328 330 331 338 337
226 244 239 256 282 311 286 290 309 326 332 331 352 93 17 353 326 251 1 347 332 13 13 3 355 349 340 338 350 358 356 340 334 332 331 329 330 327 328 329 322 336 337
234 275 284 297 292 288 311 318 328 335 336 353 2 23 359 339 348 44 345 16 12 2 350 357 345 350 340 352 354 355 345 338 335 332 334 336 338 332 324 332 334 328 324
242 206 211 251 265 314 324 342 333 343 354 352 10 45 18 323 342 22 18 13 2 3 360 344 1 352 347 358 352 347 338 337 340 340 342 349 347 336 338 331 325 318 321
241 256 227 252 306 332 360 318 352 4 348 353 354 3 4 357 28 11 15 20 356 0 359 10 351 350 2 354 348 337 338 342 346 348 347 350 351 351 347 335 330 324 309
252 252 264 281 339 332 327 355 7 5 348 360 1 360 12 5 18 42 41 359 13 9 359 0 349 1 356 352 347 344 342 342 341 343 344 347 345 338 322 319 316 317 327
236 253 285 332 29 328 30 356 6 13 5 9 9 7 22 10 5 43 31 4 23 8 354 359 9 2 1 351 353 352 348 345 350 1 351 346 345 340 325 337 1 22 26
266 86 350 26 19 13 8 13 11 15 16 16 14 14 19 24 15 21 19 0 16 359 360 2 14 6 357 359 3 8 14 16 7 1 349 332 326 346 16 25 26 36 25
162 117 50 40 29 24 27 21 28 19 23 25 20 25 25 37 43 31 24 10 1 1 5 9 11 8 0 6 11 22 22 15 2 357 348 355 15 22 17 20 32 33 30